Preview of NWS' New Version of Forecast
This preview is not operational and should not be used for support decisions.

Regional Weather Roundup (RWR)

Issued by National Weather Service (NWS)

                            
000
ASUS43 KDTX 181601
RWRMI 
MICHIGAN HOURLY REGIONAL WEATHER ROUNDUP
NATIONAL WEATHER SERVICE DETROIT/PONTIAC MI
1100 AM EST MON FEB 18 2019

NOTE: "FAIR" INDICATES FEW OR NO CLOUDS BELOW 12,000 FEET WITH NO
SIGNIFICANT WEATHER AND/OR OBSTRUCTION TO VISIBILITY.

MIZ047>049-052>055-059>063-066>070-074>076-081>083-181700-
SOUTHEAST LOWER MICHIGAN
  
CITY           SKY/WX    TMP DP  RH WIND       PRES   REMARKS
ADRIAN         CLOUDY    22  14  71 N12       30.20R WCI  10          
ALMA           FAIR      20   9  63 N9        30.25R WCI   9          
ANN ARBOR      FAIR      22  15  75 NW13      30.18R WCI  10          
BAD AXE        PTSUNNY   22  14  72 N13G18    30.18R WCI   9          
CARO           SNOW      20  17  85 NW10      30.20R VSB 1/2 WCI   9  
DETROIT CITY   CLOUDY    24  15  68 N12       30.17R WCI  13          
DETROIT        PTSUNNY   24  15  68 NW13      30.18R WCI  12          
FLINT          FAIR      20  13  74 N13       30.20R WCI   7          
GROSSE ILE     CLOUDY    25  17  72 N8        30.17R WCI  16          
HILLSDALE      CLOUDY    21  13  72 N8        30.17R WCI  12          
HOWELL         FAIR      21  13  72 NW9       30.19R WCI  11          

CITY           SKY/WX    TMP DP  RH WIND       PRES   REMARKS
JACKSON        CLOUDY    21  15  78 NW8       30.19R WCI  11          
LAMBERTVILLE   CLOUDY    24  17  77 NW8       30.19R WCI  14          
LANSING        FAIR      20  13  74 N9        30.22R WCI   9          
LAPEER         CLOUDY    24  12  59 N9        30.18R WCI  14          
MASON          FAIR      21  14  76 N7        30.21R WCI  12          
MONROE         FLURRIES  24  19  80 NW8       30.17R WCI  15          
MT. CLEMENS    FLURRIES  24  17  74 N15         N/A  WCI  11          
PONTIAC        PTSUNNY   22  14  71 N14       30.15R WCI   9          
PORT HOPE        N/A     20  14  77 N17       30.19R WCI   5          
PORT HURON     CLOUDY    23  16  74 N8        30.16R WCI  14          
TRI CITIES     FAIR      21  11  65 N15       30.24R WCI   8          
MIDLAND        FAIR      22  10  60 N9        30.24R WCI  12          
TROY           CLOUDY    25  15  66 N7        30.19R WCI  17          
SAGINAW HB     FAIR      21  12  68 N12       30.23R WCI   9          
$$
MIZ043>046-050>051-056>058-064>065-071>073-077>080-181700-
SOUTHWEST LOWER MICHIGAN
  
CITY           SKY/WX    TMP DP  RH WIND       PRES   REMARKS
BATTLE CREEK   PTSUNNY   21  14  74 N8        30.22R WCI  11          
BENTON HARBOR  PTSUNNY   24  16  71 VRB7      30.27R WCI  16          
BIG RAPIDS     FAIR      19  10  70 N3        30.24R                  
COLDWATER      FAIR      22  16  78 N10       30.21R WCI  11          
FREMONT        FAIR      21  10  63 N7        30.26R WCI  12          
HOLLAND        FAIR      22  13  68 VRB5      30.27R WCI  16          
GRAND RAPIDS   PTSUNNY   22  12  65 NW8       30.24R WCI  12          
IONIA          FAIR      21  11  65 N7        30.23R WCI  12          
KALAMAZOO      FAIR      22  15  75 N7        30.23R WCI  13          
LUDINGTON      FAIR      22  10  59 NE6       30.28R WCI  15          
MARSHALL       CLOUDY    22  15  76 N6        30.21R WCI  14          
MOUNT PLEASANT FAIR      20   8  59 N8        30.24R WCI  10          
MUSKEGON       PTSUNNY   23  10  57 NE7       30.28R WCI  15          
SOUTH HAVEN    FAIR      23  16  73 NE3       30.26R                  
$$
MIZ016>042-181700-
NORTHERN LOWER MICHIGAN
  
CITY           SKY/WX    TMP DP  RH WIND       PRES   REMARKS
ALPENA         CLOUDY    16   8  71 N14       30.27R WCI   2          
BEAVER ISLAND  PTSUNNY   11   3  70 N10       30.33R WCI  -2          
BELLAIRE       FAIR      17   7  65 N3        30.30R                  
CADILLAC       FAIR      16   4  60 N6        30.21R WCI   8          
CHARLEVOIX     FAIR      13   7  75 N10       30.34R WCI   0          
FRANKFORT      CLOUDY    20  11  66 N6        30.30R WCI  13          
GAYLORD        FAIR      12   5  73 N6        30.22R WCI   3          
GRAYLING       FAIR      14   7  73 NE6       30.23R WCI   5          
HARBOR SPRINGS FAIR      13   3  63 E5        30.29R WCI   6          
HOUGHTON LAKE  FAIR      17   6  62 NE8       30.23R WCI   7          
MANISTEE       FAIR      25  12  58 NE13G18   30.29R WCI  14          
OSCODA         LGT SNOW  17  10  74 N15       30.23R WCI   3          
PELLSTON       FAIR      10   2  69 NW5       30.31R WCI   2          
ROGERS CITY    CLOUDY    12   6  78 N7        30.30R WCI   1          
TRAVERSE CITY  FAIR      17  10  74 NE8       30.29R WCI   7          
$$
MIZ007>008-015-181700-
EASTERN UPPER MICHIGAN
  
CITY           SKY/WX    TMP DP  RH WIND       PRES   REMARKS
KINROSS        FAIR       7  -5  57 NE7       30.31R WCI  -5          
MACKINAC ISLAN FAIR      10  -1  61 N7        30.30R WCI  -1          
NEWBERRY       CLOUDY     9   1  70 MISG      30.31R                  
S. S. MARIE    FAIR       8  -4  58 N6        30.31R WCI  -2          
MUNISING         N/A     15   7  70 N14       30.34R WCI   0          
$$
MIZ004>006-011>014-085-181700-
CENTRAL UPPER MICHIGAN
  
CITY           SKY/WX    TMP DP  RH WIND       PRES   REMARKS
MANISTIQUE     CLOUDY    14   2  57 N8        30.32R WCI   3          
ESCANABA       LGT SNOW  18  11  74 NW8       30.34R WCI   8          
MENOMINEE      FAIR      20  11  68 N10       30.36R WCI   9          
SAWYER-GWINN   LGT SNOW  12   7  79 N15G21    30.29R WCI  -4          
$$
MIZ001>003-009>011-084-181700-
WESTERN UPPER MICHIGAN
  
CITY           SKY/WX    TMP DP  RH WIND       PRES   REMARKS
IRON MOUNTAIN  PTSUNNY   12   5  73 NW13      30.31R WCI  -3          
HOUGHTON       CLOUDY    11   0  61 N6        30.35R WCI   1          
COPPER HARBOR    N/A      9   1  70 NE7       30.40R WCI  -2          
IRONWOOD       FLURRIES  12   4  70 VRB5      30.38R WCI   4          
$$

ABBREVIATIONS USED IN REMARKS
   TC - TEMPERATURE IN CELSIUS
  WCI - WIND CHILL INDEX
   HX - HEAT INDEX
  VSB - VISIBILITY